Regional Weather Roundup
Issued by NWS

Home | Current Version | Previous Version | Text Only | Print | Product List | Glossary Off
Versions: 1 2 3 4 5 6 7 8 9 10 11 12 13 14 15 16 17 18 19 20 21 22 23 24 25 26 27

000
ASUS45 KCYS 201410
RWRWY

WYOMING REGIONAL WEATHER ROUNDUP
NATIONAL WEATHER SERVICE CHEYENNE WY
700 AM MST MON FEB 20 2017

NOTE:  "FAIR" INDICATES FEW OR NO CLOUDS BELOW 12,000 FEET
WITH NO SIGNIFICANT WEATHER AND/OR OBSTRUCTIONS TO VISIBILITY.

WYZ001-201500-
YELLOWSTONE NATIONAL PARK

CITY           SKY/WX    TMP DP  RH WIND       PRES   REMARKS
LK YELLOWSTONE   N/A     23  23 100 CALM      29.90F
W YELLOWSTONE  NOT AVBL

$$
WYZ002>013-054>058-071-098>099-201500-
NORTHERN WYOMING

CITY           SKY/WX    TMP DP  RH WIND       PRES   REMARKS
JACKSON        LGT SNOW  30  28  93 SW8       29.93S WCI  23
CODY           MOCLDY    31  21  66 SE14      29.85F WCI  21
GREYBULL       FAIR      30  26  85 SE3       29.88S
WORLAND        FAIR      29  26  89 CALM      29.88F
SHERIDAN       FAIR      32  21  64 SW10      29.83F WCI  24
BUFFALO        FAIR      35  21  56 SW6       29.86R WCI  30
GILLETTE       FAIR      35  31  85 W13       29.85R WCI  26
HULETT         FAIR      36  34  93 SW9       29.84R WCI  29
NEWCASTLE      FAIR      32  32 100 NW5       29.86R WCI  27

$$
WYZ014>020-022>026-101>103-201500-
CENTRAL WYOMING

CITY           SKY/WX    TMP DP  RH WIND       PRES   REMARKS
BIG PINEY      CLOUDY    14  11  87 CALM      30.00S
PINEDALE       CLOUDY    14  12  92 CALM      30.00F
DUBOIS         CLOUDY    28  21  74 NW10      29.90S WCI  19
LANDER         FAIR      28  17  63 VRB5      29.91S WCI  23
RIVERTON       FAIR      28  19  69 S5        29.91F WCI  23
CASPER         FAIR      30  19  63 SW10      29.94S WCI  21
DOUGLAS        FAIR      33  17  51 NW13      29.92R WCI  24

$$
WYZ021-027>030-104>119-201500-
SOUTHERN WYOMING

CITY           SKY/WX    TMP DP  RH WIND       PRES   REMARKS
EVANSTON       FAIR      25  21  85 SW12      29.99R WCI  14
FORT BRIDGER   FAIR      29  21  73 CALM      30.01S
ROCK SPRINGS   FAIR      30  22  72 CALM      29.99S
DIXON            N/A     21  19  93 SE6       30.09F WCI  13
RAWLINS        FAIR      29  23  78 W12       30.00S WCI  19
SARATOGA       FAIR      23  23 100 S5        30.03S WCI  17
LARAMIE        FAIR      29  15  56 W18       29.95R WCI  16
CHEYENNE       FAIR      36  18  48 NW16G25   29.93R WCI  26
TORRINGTON     FAIR      32  18  56 W10       29.88R WCI  24
PINE BLUFFS    FAIR      37  21  52 W30G40    29.89R WCI  25

$$




USA.gov is the U.S. government's official web portal to all federal, state and local government web resources and services.